CZ-6A DEB, 56279

Orbit data source: Space-Track

CZ-6A DEB, 56279 is space debris in SSO originally from a launch on Fri, 11 Nov 2022 UTC launched from the Taiyaun Space Center, China (TSC). Debris objects in space refer to the collection of defunct objects orbiting the Earth. Examples of debris include non-operational satellites, rocket bodies, and fragments generated from explosions, collisions, or faulty payload assembly.

Loading next visibility...
Identifier
56279, 2022-151ACX
Orbit
SSO
Country
Flag of CNCN / PRC
Related business
Manufacturer
SAST
Mission
Spacecraft
Bus & Motor
Unknown
Mass
Unknown
Launch date (UTC)
2022-11-11 (4 years ago)
Launch vehicle
Unknown
Launch site
Taiyaun Space Center, China (TSC)
Object type
Payload
Rocket body
Debris
Shape & HBR
Unknown shape, 0.1 m
Radar Cross Section
Small (<0.1 m²)

Expand to show TLE details & history
Last TLE update: 10 hours ago

TLE from 10 hours ago
0 CZ-6A DEB
1 56279U 22151ACX 26235.92226013  .00000510  00000-0  33349-3 0  9994
2 56279  98.9050 232.0998 0069403 189.2821 170.7069 14.05470757175876
Epoch: 2026-08-23T22:08Z
TLE epoch observation values (Epoch: 2026-08-23T22:08:03.275Z)
Latitude
0.00002°
Longitude
-72.12522°
Altitude
927.497 km
Speed
7.363 km/s
True Right ascension
15h 28m 23s
True Declination
0° 00' 00"
Sunlit
Object was in daylight at epoch
Visualization orbit readout
Latitude
Unknown
Longitude
Unknown
Altitude
Unknown
Speed
Unknown
Apparent Right ascension
Unknown
Apparent Declination
Unknown
Sunlit
N/A
Visualization observer readout
Local Sidereal Time
23:04:47
Azimuth
Unknown
Elevation
Unknown
Doppler factor
Unknown
Orbital elements
Apogee altitude
922.418 km
Perigee altitude
821.781 km
Semi-major axis
7,250.237 km
Eccentricity
0.00694
Inclination
98.905°
RAAN
232.0998°
Arg. of periapsis
189.2821°
True anomaly
170.83424°
Mean anomaly
170.7069°
Eccentric anomaly
170.77068°
Mean motion
3.51573 °/min
Orbital period
102.4 mins
BSTAR
0.00033349
Loading maneuver chart data...
Computing Atmospheric mass density...
Loading historical data...
Loading historical data...
Loading historical data...
Loading historical data...
Loading historical data...
Loading historical data...
Loading historical data...

Documentation

Showing up to 5 results
|